Location: Brede
(50.9167°N, 0.6000°E)
Time: 21:01:08
(UTC+00:00)

Vanguard 1 Rocket - Pass Details

Date: 30 November 2020
Orbit: 655 x 4221 km, 34.3° (Epoch: 17 January)

Event Time Altitude Azimuth Distance (km) Brightness Sun altitude
Exits shadow 06:41:47 - 272° (W) 7,326 11.4 -8.5°
Reaches altitude 10° 06:46:26 10° 265° (W) 6,334 11.1 -7.8°
Maximum altitude 06:59:07 24° 222° (SW) 4,018 10.5 -6.0°
Drops below altitude 10° 07:07:28 10° 174° (S) 4,016 11.2 -4.8°
Sets 07:10:50 0° 160° (SSE) 4,558 11.9 -4.4°
